Regional Weather Roundup
Issued by NWS

Home | Current Version | Previous Version | Graphics & Text | Print | Product List | Glossary On
Versions: 1 2 3 4 5 6 7 8 9 10 11 12 13 14 15 16 17 18 19 20 21 22 23 24 25 26 27 28 29 30 31 32 33 34 35 36 37 38 39 40 41 42 43 44 45 46 47 48 49 50
000
ASUS45 KCYS 261210
RWRWY

WYOMING REGIONAL WEATHER ROUNDUP
NATIONAL WEATHER SERVICE CHEYENNE WY
600 AM MDT SAT MAY 26 2018

NOTE:  "FAIR" INDICATES FEW OR NO CLOUDS BELOW 12,000 FEET
WITH NO SIGNIFICANT WEATHER AND/OR OBSTRUCTIONS TO VISIBILITY.

WYZ001-261300-
YELLOWSTONE NATIONAL PARK

CITY           SKY/WX    TMP DP  RH WIND       PRES   REMARKS
LK YELLOWSTONE   N/A     34  33  96 CALM      30.07F
6HR MIN TEMP:  34; 6HR MAX TEMP:  48; 6HR PCP:  0.02;

W YELLOWSTONE  NOT AVBL

$$
WYZ002>013-054>058-071-098>099-261300-
NORTHERN WYOMING

CITY           SKY/WX    TMP DP  RH WIND       PRES   REMARKS
JACKSON        FAIR      42  38  85 N7        29.99R
CODY           FAIR      58  43  57 W7        29.87S
GREYBULL       FAIR      54  50  86 CALM      29.78S
6HR MIN TEMP:  53; 6HR MAX TEMP:  67;

WORLAND        FAIR      50  48  93 SE5       29.80R
6HR MIN TEMP:  48; 6HR MAX TEMP:  62;

SHERIDAN       FAIR      48  46  93 CALM      29.81S
6HR MIN TEMP:  48; 6HR MAX TEMP:  58;

BUFFALO        FAIR      57  47  69 SE6       29.88S
6HR MIN TEMP:  57; 6HR MAX TEMP:  63;

GILLETTE       FAIR      58  53  84 S9        29.85F
6HR MIN TEMP:  51; 6HR MAX TEMP:  59;

NEWCASTLE      FAIR      54  46  76 CALM      29.89F

$$
WYZ014>020-022>026-101>103-261300-
CENTRAL WYOMING

CITY           SKY/WX    TMP DP  RH WIND       PRES   REMARKS
BIG PINEY      FAIR      38  35  89 N3        30.01R
6HR MIN TEMP:  36; 6HR MAX TEMP:  49;

PINEDALE       FAIR      36  34  93 W3        30.01S
DUBOIS         FAIR      43  34  70 W14       30.00S
LANDER         FAIR      51  36  56 CALM      29.87S
6HR MIN TEMP:  50; 6HR MAX TEMP:  64;

RIVERTON       FAIR      49  45  86 NW9       29.88R
6HR MIN TEMP:  48; 6HR MAX TEMP:  63;

CASPER         FAIR      44  42  93 N5        29.91S
6HR MIN TEMP:  43; 6HR MAX TEMP:  60;

DOUGLAS        FAIR      51  50  96 CALM      29.91R
6HR MIN TEMP:  51; 6HR MAX TEMP:  59;


$$
WYZ021-027>030-104>119-261300-
SOUTHERN WYOMING

CITY           SKY/WX    TMP DP  RH WIND       PRES   REMARKS
EVANSTON       FAIR      56  27  32 S3        30.00S
6HR MIN TEMP:  49; 6HR MAX TEMP:  62;

FORT BRIDGER   FAIR      51  19  27 W7        30.02S
ROCK SPRINGS   FAIR      52  14  22 SE8       29.99R
6HR MIN TEMP:  50; 6HR MAX TEMP:  65;

DIXON          FAIR      42  25  51 SE3       30.05S
RAWLINS        FAIR      41  22  46 E3        30.03S
6HR MIN TEMP:  40; 6HR MAX TEMP:  62;

SARATOGA       FAIR      46  27  46 CALM      30.06S
LARAMIE        FAIR      43  33  68 SW3       30.08R
6HR MIN TEMP:  38; 6HR MAX TEMP:  57;

CHEYENNE       FAIR      48  41  76 W3        30.00R
6HR MIN TEMP:  47; 6HR MAX TEMP:  57;

TORRINGTON     FAIR      53  50  89 E6        29.89R
6HR MIN TEMP:  52; 6HR MAX TEMP:  60;

PINE BLUFFS    FAIR      59  46  63 SW9       29.95R

$$



USA.gov is the U.S. government's official web portal to all federal, state and local government web resources and services.